Погода в Городке

Россия / Красноярский край     53°55′24″N   91°48′07″E
темп.,
°C
ветер,
м/с
пор.,
м/с
влажн.,
%
обл.,
%
осадки,
мм/ч
давл.,
гПа
погр.,
м
8 мая, сб
сб801:00+11зсз6136182 0.8 1014443
04:00+9з33615 0.0 101638
07:00+10зюз395815 0.0 1016337
10:00+14зюз574668 0.0 10151559
13:00+16зсз7103148 0.0 10142640
16:00+17зсз9113030 0.0 10132621
19:00+15зсз6113862 0.0 10141515
22:00+12з6115294 0.1 1014355
9 мая, вс
вс901:00+10зсз5107362 0.8 1015966
04:00+9зюз6137778 1.5 1013509
07:00+10з377455 2.3 1014599
10:00+7ссз587656 0.4 1015668
13:00+8сз696260 0.5 10171123
16:00+10ссз794383 0.0 10171725
19:00+9ссз574479 0.0 10181869
22:00+5ссз36615 0.0 1020143
10 мая, пн
пн1001:00+4сз24725 0.0 102185
04:00+2ссз23833 0.0 102243
07:00+4ссз23785 0.0 1023250
10:00+7ссв235844 0.0 10221136
13:00+11св444480 0.0 10201749
16:00+12всв544074 0.0 10191895
19:00+11всв56436 0.0 10171758
22:00+7ссв35610 0.0 101787
11 мая, вт
вт1101:00+5ссв33720 0.0 101639
04:00+4ссв22780 0.0 101525
07:00+6ссв23680 0.0 1015174
10:00+11всв34460 0.0 1014836
13:00+15всв34350 0.0 10121459
16:00+17всв332994 0.0 10101943
19:00+16ссв2235100 0.0 101097
22:00+12с3451100 0.0 101092
12 мая, ср
ср1201:00+9ссз2364100 0.0 101163
04:00+7сз2469100 0.0 1011113
07:00+8сз356299 0.0 1011380
10:00+11с3451100 0.0 1012898
13:00+14ссв4539100 0.0 10111724
16:00+15с7635100 0.0 10112168
19:00+11ссв6749100 0.0 10141090
22:00+7с595649 0.0 1016484